Wetbulb
38.54 38.22 37.50 36.62 36.27 36.07 34.94 34.72 34.42 34.81 34.45 33.77 33.70 33.33 32.06 30.58 31.07 30.18 30.60 30.12 28.83 30.91 31.26 30.85 30.16 30.53 30.09 30.70 30.93 30.67 28.59 29.07 26.27 28.10 30.72 32.88 33.33 33.68 36.74 37.95 37.95 37.95 38.78
38.09 37.89 37.24 36.31 35.78 34.71 34.17 34.11 34.72 33.61 34.49 33.69 33.60 32.78 31.12 30.13 31.09 29.10 28.96 28.52 28.56 29.98 30.13 29.36 29.63 30.84 29.52 29.29 28.61 27.48 27.16 28.63 28.45 26.61 28.99 30.55 31.41 34.48 36.52 36.58 37.67 38.66 38.36
37.50 37.13 36.18 35.23 34.54 33.75 33.58 33.91 34.15 33.61 33.48 33.51 33.27 31.23 30.00 30.23 29.28 28.32 29.00 28.63 28.98 30.47 30.06 29.70 29.40 29.79 27.88 27.73 28.41 27.00 27.07 29.75 29.29 28.45 27.32 30.67 31.92 35.17 33.89 36.30 36.50 36.96 39.06
36.75 35.86 34.85 34.43 34.15 33.73 33.82 33.71 33.57 33.84 33.04 32.67 33.23 31.87 30.60 30.24 28.92 28.65 28.75 28.53 28.50 30.81 30.69 29.93 29.56 28.24 27.55 29.29 28.14 27.41 29.05 27.05 27.81 28.73 29.02 29.29 31.93 33.14 32.36 33.39 33.56 34.86 35.37
35.84 35.01 34.54 34.85 34.71 34.31 33.65 33.61 33.54 33.47 33.23 33.21 32.99 31.34 30.84 30.14 28.98 28.43 28.43 27.52 28.64 30.16 30.09 29.59 29.30 30.75 31.72 30.14 28.66 28.48 28.34 27.23 27.41 27.35 26.44 27.66 28.09 27.32 28.97 32.61 32.68 33.77 34.32
35.12 34.40 34.73 34.57 34.16 33.24 32.88 32.66 32.33 32.42 32.31 32.13 31.92 30.76 30.36 29.18 30.05 29.88 28.85 27.41 29.91 29.76 27.70 28.67 28.64 29.19 30.20 29.19 30.26 30.60 32.19 29.05 27.14 26.78 26.65 26.50 27.04 27.98 28.27 30.70 31.66 32.14 31.73
34.93 34.35 34.24 34.25 33.29 32.76 32.90 32.26 31.37 31.16 31.74 31.32 31.61 30.44 29.52 28.69 29.93 29.61 29.40 28.97 29.24 29.37 27.92 28.51 27.78 27.71 28.75 28.04 28.66 31.64 32.16 32.28 29.65 28.82 26.94 28.78 27.65 30.02 30.88 31.42 32.11 32.87 32.31
34.18 33.66 33.76 33.56 32.79 32.59 32.08 30.87 30.93 31.42 31.24 31.34 31.10 30.20 29.33 29.58 29.73 29.26 29.22 27.85 27.49 28.74 28.38 28.44 27.76 26.34 28.00 28.36 28.05 28.39 30.12 31.17 31.45 31.77 31.45 31.39 31.83 32.70 32.76 33.09 33.38 33.59 33.95
32.96 32.89 33.14 33.00 32.27 31.96 30.68 30.43 31.40 31.33 31.62 31.52 31.20 29.64 28.25 27.97 29.36 29.06 28.10 26.92 26.11 27.35 27.91 27.77 28.13 27.04 29.49 30.02 27.52 26.77 28.03 28.79 33.06 33.66 35.17 35.10 34.90 35.14 34.94 34.52 32.65 32.08 31.92
32.58 32.94 33.26 33.03 32.14 31.17 30.87 31.02 31.97 31.90 31.20 30.88 30.37 30.22 30.71 26.92 28.62 28.21 28.16 26.61 24.72 26.05 26.97 27.30 28.60 29.09 29.32 29.58 27.14 26.92 25.88 27.47 30.61 32.05 33.12 34.36 35.32 35.17 34.09 34.92 33.85 33.45 31.55
33.73 33.45 32.91 32.66 32.08 32.03 31.80 31.38 30.66 30.29 29.64 29.09 28.64 28.71 28.40 27.60 25.62 27.52 28.05 25.89 25.33 25.53 26.02 26.57 27.45 29.62 29.51 29.48 29.09 27.62 27.53 29.68 30.58 31.77 32.17 32.64 33.48 33.88 33.51 34.07 34.48 33.23 32.05
33.11 32.80 32.16 31.98 31.47 32.18 30.39 29.32 28.21 27.76 26.61 26.18 26.31 26.03 26.64 26.06 26.11 26.66 27.48 27.24 27.42 25.65 26.15 27.49 28.00 29.99 29.64 29.48 28.16 28.74 29.23 29.02 29.64 30.13 30.11 30.26 31.35 32.05 33.35 33.74 34.60 34.78 34.82
30.95 29.50 30.71 31.60 31.24 30.93 28.94 25.95 24.68 24.64 23.88 23.28 23.62 23.33 23.13 23.94 23.58 26.17 27.42 27.40 27.72 26.40 28.27 27.96 28.61 28.76 28.59 28.00 28.76 28.57 27.61 27.93 28.04 28.05 28.81 30.08 31.62 33.26 34.55 34.22 34.93 34.72 33.54
28.56 30.57 31.37 29.77 29.38 28.08 27.30 25.98 22.80 21.34 21.22 21.53 21.36 21.33 21.26 21.80 22.64 24.44 25.99 25.81 27.17 26.45 27.39 27.22 26.96 26.96 26.56 26.60 27.33 27.35 27.42 28.23 28.01 28.34 29.33 30.78 31.94 32.85 32.31 33.60 32.96 33.18 31.59
32.27 32.14 31.11 30.97 30.71 28.23 26.55 26.17 25.44 22.72 21.80 20.68 20.27 21.44 20.30 19.58 23.00 26.29 27.20 25.98 25.70 25.76 25.81 25.14 24.24 24.04 23.67 24.31 25.46 26.11 27.16 28.15 27.43 28.63 29.16 29.76 29.72 32.04 31.84 33.09 32.82 32.41 31.42
31.07 29.57 29.38 29.77 29.75 29.31 28.45 26.49 24.77 24.85 23.68 24.09 25.02 23.43 23.40 25.50 26.72 27.67 28.48 28.03 27.80 27.08 24.18 22.64 22.33 22.93 22.79 23.68 24.23 24.85 25.75 27.02 28.02 28.74 29.18 29.62 29.97 30.31 31.51 32.18 32.17 30.98 30.24
30.27 30.95 29.77 29.01 28.78 28.30 28.34 27.60 26.47 25.50 24.37 23.61 26.54 26.65 26.97 26.78 26.84 27.15 27.75 27.85 27.38 26.48 22.69 22.54 22.01 22.82 23.19 24.31 24.68 24.89 24.54 26.21 28.83 28.99 29.13 29.48 29.75 30.56 30.70 30.77 31.06 30.56 30.22
29.99 28.05 29.27 29.06 28.60 28.70 28.34 28.28 27.92 26.65 24.70 24.57 26.75 26.98 27.30 27.89 27.26 26.90 26.65 26.00 23.02 23.95 23.30 22.27 22.01 22.83 23.64 24.28 24.71 24.91 25.21 25.64 27.65 28.66 28.98 29.56 29.85 30.09 30.10 29.75 30.28 30.28 30.48
30.34 29.37 29.14 28.07 27.39 26.52 28.07 27.58 27.22 26.44 25.53 24.19 23.13 23.54 23.94 28.58 28.23 26.90 26.19 22.35 20.92 21.15 22.18 22.35 22.49 22.88 23.24 23.91 24.52 24.95 25.49 25.29 26.99 27.89 28.83 29.40 29.54 29.94 29.94 30.78 30.52 30.18 30.38
27.56 26.58 27.30 28.85 28.36 27.99 27.49 26.95 26.45 25.89 25.40 24.40 21.93 21.26 23.28 24.30 22.92 22.40 22.84 22.08 20.69 20.29 21.18 20.76 21.36 21.60 23.18 23.22 22.75 23.34 23.95 25.10 25.99 27.58 28.43 29.13 29.76 29.66 29.62 30.39 30.75 29.94 29.65
28.59 28.69 23.12 28.84 27.86 27.59 27.26 26.40 26.10 25.52 24.69 24.21 23.67 22.54 21.32 23.49 22.54 22.08 22.10 21.75 21.12 20.36 20.04 20.35 20.19 19.75 20.60 21.59 21.31 20.69 21.73 22.73 25.37 27.03 27.87 28.94 28.94 28.68 29.46 29.77 30.53 30.38 30.43
29.87 29.83 29.71 28.48 28.38 27.44 26.85 27.00 26.54 25.72 25.32 24.81 24.49 24.68 20.21 24.37 23.11 22.73 22.03 21.87 22.10 21.58 21.17 20.80 19.53 19.55 18.77 19.04 18.96 18.35 19.31 20.64 23.59 27.05 27.66 28.21 28.27 28.20 29.04 29.06 29.31 30.06 29.67
30.37 29.68 28.99 28.25 26.94 22.90 27.71 27.19 25.80 25.53 25.28 25.57 25.39 24.73 24.34 23.88 23.33 22.79 22.34 21.48 22.25 21.67 21.48 20.18 19.71 18.88 18.35 18.25 17.97 17.78 17.21 18.64 24.36 27.28 27.42 27.06 27.32 27.04 27.13 27.64 28.30 28.12 28.87
30.61 30.02 29.10 28.37 28.19 28.38 28.31 27.15 26.09 21.70 24.39 25.37 25.22 25.23 23.65 23.03 22.68 21.63 20.85 20.37 20.87 20.94 20.35 19.88 19.73 17.73 16.65 15.65 15.98 17.03 17.30 18.57 24.05 25.24 25.49 25.27 25.13 25.66 25.16 24.93 25.10 26.23 27.43
31.10 31.00 30.04 29.41 27.88 28.16 26.70 27.04 26.36 26.03 25.93 25.52 24.74 24.56 23.95 23.33 22.60 22.14 20.89 18.50 18.02 18.41 18.63 18.02 18.57 17.29 15.77 13.32 13.16 13.56 14.82 17.80 21.99 23.31 24.96 24.19 22.86 23.14 23.32 23.65 23.38 22.97 23.05
31.21 30.79 30.45 30.37 29.07 28.33 28.03 27.44 26.69 26.21 25.19 25.30 24.92 24.27 23.46 22.47 22.05 21.66 19.68 16.74 16.29 17.25 17.06 17.18 18.28 16.43 14.76 14.85 13.16 13.57 13.62 16.30 20.61 21.13 23.58 23.85 23.26 23.33 23.43 22.67 21.86 22.59 22.15
MSLP
1027.24 1027.51 1027.69 1027.75 1027.59 1027.39 1027.45 1027.50 1027.51 1027.27 1027.08 1026.92 1026.63 1026.32 1026.52 1026.58 1026.28 1026.02 1025.51 1024.84 1024.22 1023.64 1023.16 1022.93 1022.62 1022.30 1022.06 1021.77 1021.45 1021.12 1020.88 1020.57 1019.75 1018.85 1018.30 1017.70 1017.19 1016.78 1016.24 1015.83 1015.51 1015.33 1015.36
1027.24 1027.53 1027.69 1027.85 1027.96 1027.70 1027.69 1027.67 1027.53 1027.35 1027.10 1026.89 1026.74 1026.64 1026.94 1026.76 1026.42 1026.24 1025.58 1024.83 1024.04 1023.38 1022.98 1022.68 1022.37 1022.09 1021.88 1021.71 1021.42 1021.10 1020.81 1020.32 1019.81 1018.97 1018.34 1017.75 1017.28 1016.71 1016.21 1015.75 1015.38 1015.16 1015.17
1027.26 1027.46 1028.01 1028.02 1028.02 1027.98 1027.92 1027.78 1027.62 1027.41 1027.15 1026.96 1026.68 1026.91 1027.05 1026.76 1026.62 1026.36 1025.63 1024.73 1023.87 1023.26 1022.76 1022.41 1022.30 1022.04 1021.89 1021.59 1021.22 1020.89 1020.48 1019.95 1019.55 1019.06 1018.36 1017.61 1017.03 1016.57 1016.22 1015.87 1015.49 1015.27 1014.90
1027.50 1027.74 1028.11 1028.25 1028.12 1028.11 1028.03 1027.83 1027.68 1027.38 1027.23 1026.98 1026.66 1026.92 1026.89 1026.76 1026.72 1026.33 1025.49 1024.59 1023.77 1023.08 1022.56 1022.40 1022.27 1022.08 1021.75 1021.23 1020.95 1020.53 1019.91 1019.70 1019.31 1018.80 1018.24 1017.57 1017.06 1016.46 1016.03 1015.92 1015.65 1015.14 1014.81
1027.77 1028.02 1028.21 1028.26 1028.18 1028.24 1028.16 1027.96 1027.70 1027.40 1027.15 1026.95 1026.75 1026.93 1026.83 1026.71 1026.78 1026.20 1025.48 1024.59 1023.72 1022.94 1022.50 1022.35 1022.19 1021.86 1021.53 1021.24 1020.71 1020.05 1019.61 1019.34 1019.07 1018.66 1018.22 1017.69 1017.11 1016.70 1016.48 1016.05 1015.58 1015.35 1015.17
1028.18 1028.25 1028.45 1028.32 1028.34 1028.39 1028.32 1028.05 1027.81 1027.56 1027.31 1026.95 1026.85 1026.93 1026.93 1027.04 1026.86 1026.16 1025.43 1024.50 1023.40 1022.89 1022.56 1022.43 1022.28 1021.91 1021.46 1021.02 1020.26 1019.64 1018.98 1018.56 1018.75 1018.57 1018.23 1017.76 1017.17 1016.86 1016.50 1016.11 1015.49 1015.07 1015.04
1028.48 1028.57 1028.67 1028.62 1028.57 1028.64 1028.51 1028.25 1027.97 1027.63 1027.30 1026.99 1026.99 1027.03 1027.11 1027.44 1026.94 1026.36 1025.46 1024.40 1023.59 1023.19 1022.91 1022.73 1022.42 1022.02 1021.47 1020.81 1020.03 1019.21 1018.63 1018.32 1018.36 1018.32 1017.95 1017.45 1017.09 1016.82 1016.54 1015.98 1015.48 1014.97 1015.07
1029.09 1029.16 1029.05 1028.89 1028.91 1028.92 1028.77 1028.43 1028.17 1027.71 1027.36 1027.08 1027.16 1027.25 1027.33 1027.45 1027.14 1026.65 1025.80 1024.83 1024.14 1023.57 1023.31 1023.05 1022.72 1022.14 1021.43 1020.65 1019.93 1019.29 1018.67 1018.38 1018.11 1017.81 1017.43 1017.10 1016.82 1016.50 1016.20 1015.89 1015.55 1015.37 1015.29
1029.17 1029.76 1029.45 1029.39 1029.35 1029.17 1029.09 1028.72 1028.36 1027.90 1027.53 1027.37 1027.37 1027.44 1027.50 1027.54 1027.44 1027.01 1026.21 1025.41 1024.73 1024.01 1023.61 1023.31 1022.84 1022.26 1021.45 1020.69 1020.05 1019.48 1018.88 1018.38 1017.74 1017.27 1016.84 1016.47 1016.23 1016.01 1015.70 1015.25 1015.17 1015.28 1015.28
1029.81 1030.12 1029.92 1029.81 1029.69 1029.59 1029.34 1029.10 1028.73 1028.29 1028.04 1027.83 1027.64 1027.62 1027.69 1027.91 1027.72 1027.41 1026.64 1025.92 1025.26 1024.41 1023.84 1023.36 1022.85 1022.31 1021.63 1020.91 1020.30 1019.73 1019.07 1018.44 1017.71 1017.11 1016.65 1016.18 1015.93 1015.64 1015.47 1015.15 1014.81 1014.59 1015.06
1030.13 1030.63 1030.56 1030.35 1029.96 1030.04 1029.83 1029.79 1029.44 1028.99 1028.69 1028.49 1028.25 1028.26 1028.23 1028.23 1028.31 1027.78 1027.11 1026.44 1025.81 1024.93 1024.27 1023.72 1023.23 1022.51 1021.82 1021.25 1020.65 1020.07 1019.49 1018.68 1017.87 1017.26 1016.84 1016.41 1015.96 1015.68 1015.45 1015.27 1015.11 1014.95 1015.00
1030.79 1030.94 1030.89 1030.60 1030.57 1030.46 1030.58 1030.64 1030.45 1029.95 1029.65 1029.50 1029.17 1029.10 1029.02 1028.93 1028.90 1028.19 1027.39 1026.75 1026.12 1025.52 1024.81 1024.37 1023.73 1022.89 1022.18 1021.62 1021.09 1020.44 1019.62 1018.89 1018.27 1017.68 1017.21 1016.81 1016.31 1015.97 1015.68 1015.52 1015.42 1015.27 1015.26
1031.46 1031.29 1031.10 1030.87 1031.19 1031.19 1031.37 1031.59 1031.53 1031.15 1030.85 1030.65 1030.32 1030.15 1030.00 1029.85 1029.50 1028.61 1027.69 1027.03 1026.44 1025.93 1025.41 1024.92 1024.13 1023.39 1022.77 1022.11 1021.55 1020.90 1020.14 1019.48 1018.93 1018.29 1017.84 1017.43 1016.92 1016.59 1016.22 1015.97 1015.83 1015.99 1015.96
1031.53 1031.23 1030.99 1031.16 1031.48 1031.89 1032.12 1032.28 1032.54 1032.34 1032.10 1031.83 1031.51 1031.16 1030.96 1030.52 1029.83 1029.03 1028.28 1027.70 1027.06 1026.51 1025.95 1025.45 1024.92 1024.23 1023.52 1022.94 1022.16 1021.50 1020.90 1020.27 1019.71 1019.13 1018.59 1018.16 1017.68 1017.27 1016.97 1016.73 1016.55 1016.61 1016.57
1030.89 1030.96 1031.08 1031.27 1031.25 1032.05 1032.58 1032.77 1032.84 1033.21 1033.16 1032.80 1032.56 1032.07 1031.58 1031.01 1030.45 1029.64 1028.83 1028.26 1027.67 1027.20 1026.52 1025.91 1025.29 1024.71 1024.18 1023.63 1022.97 1022.38 1021.70 1021.01 1020.38 1019.86 1019.30 1018.83 1018.44 1018.05 1017.83 1017.52 1017.25 1017.26 1017.45
1031.18 1031.62 1031.53 1031.61 1031.66 1031.91 1032.25 1033.09 1033.22 1033.09 1033.21 1032.95 1032.57 1032.23 1032.05 1031.40 1030.71 1029.81 1029.02 1028.63 1028.06 1027.62 1027.07 1026.73 1026.35 1025.85 1025.27 1024.68 1024.01 1023.32 1022.64 1021.94 1021.32 1020.75 1020.20 1019.70 1019.30 1018.98 1018.75 1018.52 1018.27 1018.18 1018.20
1031.51 1031.57 1031.81 1032.00 1032.21 1032.42 1032.31 1032.62 1032.85 1033.04 1033.11 1033.08 1032.47 1032.08 1031.69 1031.30 1030.89 1030.27 1029.54 1029.13 1028.72 1028.16 1027.94 1027.80 1027.41 1026.82 1026.24 1025.68 1025.07 1024.38 1023.74 1023.04 1022.30 1021.62 1021.13 1020.64 1020.21 1019.83 1019.59 1019.51 1019.34 1019.21 1019.19
1032.16 1032.05 1032.23 1032.32 1032.36 1032.49 1032.38 1032.44 1032.50 1032.67 1032.87 1032.94 1032.60 1032.25 1031.87 1031.48 1031.11 1030.79 1030.30 1029.77 1029.31 1029.04 1028.99 1028.89 1028.48 1027.88 1027.18 1026.55 1026.00 1025.41 1024.77 1024.01 1023.22 1022.62 1022.08 1021.61 1021.20 1020.91 1020.68 1020.51 1020.39 1020.26 1020.37
1032.22 1032.29 1032.54 1032.83 1032.77 1032.74 1032.56 1032.54 1032.58 1032.64 1032.83 1032.91 1033.07 1032.90 1032.55 1031.74 1031.48 1031.25 1030.99 1030.67 1030.66 1030.48 1030.19 1029.86 1029.55 1028.98 1028.36 1027.71 1027.08 1026.41 1025.78 1025.08 1024.31 1023.65 1023.08 1022.59 1022.20 1021.84 1021.57 1021.41 1021.35 1021.32 1021.31
1032.98 1032.98 1032.76 1032.74 1032.76 1032.86 1032.88 1032.89 1032.96 1033.06 1033.14 1033.24 1033.69 1033.70 1033.22 1032.37 1032.08 1031.94 1031.92 1031.81 1031.61 1031.57 1031.33 1031.00 1030.62 1030.13 1029.42 1028.84 1028.31 1027.69 1026.84 1025.98 1025.24 1024.60 1024.11 1023.68 1023.25 1022.85 1022.54 1022.37 1022.20 1022.17 1022.22
1033.10 1033.22 1033.08 1032.97 1033.13 1033.14 1033.17 1033.29 1033.32 1033.45 1033.60 1033.69 1033.95 1034.30 1034.06 1033.53 1033.26 1033.10 1033.01 1032.84 1032.60 1032.44 1032.26 1031.99 1031.64 1031.22 1030.58 1029.92 1029.42 1028.91 1028.30 1027.62 1026.66 1025.81 1025.21 1024.80 1024.50 1024.15 1023.91 1023.57 1023.37 1023.32 1023.36
1032.99 1033.14 1033.17 1033.23 1033.39 1033.65 1033.56 1033.66 1033.78 1033.83 1034.00 1034.15 1034.34 1034.60 1034.52 1034.35 1034.09 1033.99 1033.96 1033.80 1033.55 1033.34 1033.10 1032.77 1032.51 1032.17 1031.92 1031.29 1030.66 1030.17 1029.58 1028.91 1028.10 1027.34 1026.69 1026.15 1025.72 1025.37 1025.11 1024.82 1024.68 1024.58 1024.70
1033.04 1033.22 1033.41 1033.55 1033.79 1034.02 1034.06 1034.04 1034.26 1034.24 1034.41 1034.64 1034.77 1034.85 1034.89 1034.91 1034.76 1034.71 1034.66 1034.57 1034.18 1033.98 1033.74 1033.50 1033.13 1032.80 1032.68 1032.47 1032.03 1031.46 1030.86 1030.03 1029.06 1028.42 1027.87 1027.43 1026.95 1026.54 1026.35 1026.21 1026.01 1025.94 1025.81
1033.17 1033.31 1033.49 1033.99 1034.03 1034.12 1034.33 1034.44 1034.54 1034.75 1034.83 1034.96 1035.04 1035.05 1035.12 1035.15 1035.17 1035.14 1035.16 1035.12 1034.83 1034.59 1034.33 1034.05 1033.72 1033.55 1033.30 1033.14 1032.87 1032.29 1031.67 1030.94 1029.90 1029.34 1028.89 1028.56 1028.31 1028.02 1027.63 1027.30 1027.36 1027.23 1027.13
1033.31 1033.47 1033.80 1034.08 1034.30 1034.56 1034.69 1034.64 1034.75 1034.92 1035.02 1035.17 1035.28 1035.35 1035.38 1035.36 1035.43 1035.36 1035.39 1035.51 1035.33 1035.02 1034.78 1034.64 1034.31 1034.01 1033.75 1033.66 1033.37 1032.95 1032.29 1031.41 1030.74 1030.16 1029.80 1029.54 1029.47 1029.34 1029.09 1028.87 1028.55 1028.25 1028.29
1033.51 1033.64 1033.92 1034.13 1034.53 1034.72 1034.71 1034.80 1034.89 1034.94 1035.06 1035.20 1035.33 1035.43 1035.51 1035.56 1035.47 1035.55 1035.61 1035.87 1035.75 1035.38 1035.19 1034.99 1034.81 1034.50 1034.29 1034.12 1033.90 1033.32 1032.72 1032.15 1031.60 1031.14 1030.71 1030.44 1030.24 1030.15 1030.15 1030.30 1030.36 1030.31 1030.11
Wind_Speed
5 5 5 5 5 5 5 6 6 6 6 6 7 7 10 10 9 10 12 11 11 10 6 6 8 7 5 6 6 6 5 7 8 8 6 7 8 8 8 4 4 5 5
5 4 5 5 5 6 6 6 6 6 6 7 7 9 10 9 9 12 13 13 12 10 7 6 8 6 6 6 5 8 6 8 7 10 7 6 6 8 7 6 3 3 5
4 5 5 5 6 6 6 6 6 6 6 6 7 9 7 8 9 12 13 13 12 11 7 7 8 8 7 7 7 7 7 6 6 7 7 6 4 5 5 5 2 4 5
4 6 5 5 5 5 6 6 6 6 6 6 6 7 6 7 10 13 14 13 12 11 6 7 7 8 9 8 7 8 7 6 6 6 5 5 4 3 1 2 2 2 3
5 5 5 4 5 6 6 6 6 5 6 6 6 6 6 6 9 14 13 13 13 9 7 7 8 13 19 15 9 8 7 5 4 5 4 5 4 4 4 3 2 3 1
5 5 5 6 7 6 6 6 6 6 5 5 6 6 8 6 20 24 19 13 11 8 8 8 9 13 13 21 20 20 13 7 3 3 4 6 3 2 3 4 5 1 2
5 6 6 7 7 7 7 7 7 6 5 6 7 8 8 8 22 24 26 11 11 9 9 8 8 10 13 12 17 15 11 2 7 5 7 5 5 4 5 5 3 2 1
6 7 7 7 8 7 7 7 6 5 6 5 7 8 8 9 22 24 25 13 12 11 10 10 9 13 13 15 11 10 10 5 3 4 6 6 6 5 5 4 2 2 1
7 6 7 7 7 7 7 6 5 5 6 7 7 7 8 10 23 24 19 11 12 11 9 10 9 12 19 22 10 10 8 7 9 12 7 10 10 6 5 3 1 3 2
6 6 7 6 7 7 6 6 7 6 7 7 7 7 13 11 22 24 21 9 11 9 9 10 16 17 19 21 11 9 9 9 8 7 5 7 5 4 6 3 3 3 2
6 7 7 7 6 7 7 8 9 8 9 9 9 10 11 13 16 25 24 10 9 9 9 8 9 21 20 21 18 11 11 10 9 6 4 5 6 5 4 4 5 3 2
7 5 4 4 7 8 9 9 11 10 10 10 10 9 9 12 21 21 23 21 19 9 9 8 10 20 21 19 14 22 20 11 7 6 5 6 6 6 6 6 7 7 5
3 3 4 7 9 9 9 10 8 10 9 9 9 9 9 10 10 22 22 24 20 10 9 15 20 19 20 13 20 22 14 9 8 7 7 7 7 6 7 5 6 9 10
3 5 5 4 8 7 6 7 7 7 7 8 8 8 9 9 10 10 10 10 16 12 11 9 10 12 12 12 11 12 9 8 8 8 7 6 6 7 8 6 6 5 8
4 4 5 4 4 7 6 5 4 4 5 5 6 7 8 9 11 16 13 9 9 10 9 8 9 10 10 10 9 10 9 9 9 8 8 7 8 6 7 7 8 7 7
6 4 4 3 4 4 4 4 4 5 4 6 9 6 3 13 19 21 19 20 21 17 9 9 10 9 10 10 10 10 10 11 9 8 7 8 7 7 6 7 7 8 7
4 4 3 4 4 3 3 4 3 4 3 2 6 13 13 16 20 22 21 18 22 15 10 10 10 10 9 9 9 9 10 9 10 8 8 8 8 7 8 8 7 8 9
3 2 4 3 3 2 2 2 1 2 3 2 3 10 14 13 19 22 22 14 11 13 10 10 9 10 10 10 9 9 9 10 9 8 8 9 8 7 8 8 8 8 8
3 4 4 3 2 3 3 4 4 4 4 5 6 8 11 13 15 18 20 10 10 10 10 10 10 10 10 10 10 9 9 10 9 8 9 8 9 8 8 7 8 11 10
3 4 3 3 3 3 3 4 4 4 5 5 6 7 8 7 8 9 9 9 9 9 9 10 10 10 10 10 10 10 10 11 11 9 9 9 8 9 9 8 7 8 9
4 1 3 4 4 3 3 4 4 4 4 5 4 4 8 7 8 8 8 9 9 9 9 9 9 10 10 10 10 10 10 10 11 11 10 9 9 8 9 9 8 9 8
4 3 3 3 3 4 4 4 4 4 4 5 4 5 7 6 7 7 7 7 7 8 7 8 8 9 9 10 10 9 9 10 10 10 9 9 8 9 8 9 8 8 9
3 3 3 4 3 2 2 4 4 4 4 4 4 4 4 4 5 6 6 6 6 6 6 7 7 8 8 8 8 8 9 10 9 9 8 8 9 8 9 9 9 9 9
3 2 3 3 3 3 2 2 2 3 3 3 3 3 2 2 3 4 3 4 5 5 4 5 6 8 8 8 7 7 8 8 8 8 8 7 8 8 8 9 9 10 9
3 2 2 2 2 2 1 2 2 2 2 2 2 2 3 2 3 3 2 3 3 3 4 4 5 7 8 10 10 11 12 12 11 9 7 7 7 9 9 8 9 10 12
3 2 2 1 3 2 2 1 0 1 1 1 1 1 1 2 2 2 2 3 3 3 4 3 6 8 9 8 10 12 12 11 10 13 8 8 9 8 8 9 10 9 11
Wind_Direction
55 62 39 26 18 18 22 11 12 354 351 343 359 346 26 9 352 352 341 333 323 315 325 318 314 310 307 316 314 314 320 313 300 304 304 308 316 318 309 313 282 266 271
82 64 52 32 16 25 17 8 6 354 352 354 349 40 20 352 359 353 338 330 319 321 328 318 316 325 329 329 322 313 310 305 303 303 304 303 301 303 305 301 292 284 272
68 72 38 31 25 22 12 5 5 352 359 358 347 42 11 357 1 347 335 327 319 323 317 332 336 345 336 322 315 310 306 300 304 297 297 295 292 304 307 322 292 273 276
60 61 44 32 21 20 5 4 2 353 1 355 6 33 10 7 5 345 337 328 326 325 329 353 359 344 320 321 317 307 300 309 304 302 300 299 305 305 326 302 320 265 302
62 58 48 29 30 16 5 2 359 351 4 353 28 28 17 23 359 351 342 331 317 324 360 4 1 343 342 351 323 315 301 295 304 312 313 311 316 339 346 314 287 267 266
64 57 40 32 27 14 2 5 358 360 359 347 44 28 31 25 360 358 351 325 329 358 4 5 1 356 345 342 335 320 315 269 281 289 303 297 305 327 321 309 294 242 193
60 53 38 25 27 14 7 4 358 354 355 349 47 35 33 30 9 2 351 337 351 5 14 5 360 351 348 339 333 331 325 288 235 268 278 308 308 316 303 292 307 305 66
53 36 35 22 28 15 8 6 349 353 2 5 45 33 23 35 12 4 355 349 350 5 13 9 7 347 345 350 339 346 348 14 339 286 273 284 280 287 277 264 251 297 221
57 30 34 25 20 14 9 360 342 357 9 22 43 32 31 30 18 6 1 352 350 355 10 5 2 345 353 358 352 350 349 343 329 329 312 292 290 300 326 300 187 196 147
50 35 28 25 20 19 6 1 354 11 20 11 23 31 47 33 19 9 8 353 351 351 358 1 355 355 3 5 360 353 352 338 335 332 341 339 2 349 8 350 333 116 125
57 44 35 8 30 23 17 17 9 10 23 15 18 24 25 37 14 8 8 1 356 348 352 356 350 4 7 12 13 4 359 341 345 343 347 356 5 17 15 15 31 36 76
50 47 29 42 33 26 36 20 19 15 24 15 12 21 16 21 9 4 7 12 5 350 344 1 353 6 7 14 16 10 3 359 0 360 16 14 7 14 10 27 45 57 51
86 339 10 64 48 35 40 35 22 18 19 16 11 15 6 11 359 359 2 9 7 360 6 7 7 12 11 7 10 9 5 3 2 9 18 16 3 19 26 24 42 61 61
228 236 108 63 96 64 49 57 35 26 17 22 10 9 4 2 357 355 358 1 5 5 0 4 10 12 14 7 4 7 3 3 5 6 11 12 14 31 31 22 36 58 67
87 73 82 63 60 110 75 47 70 56 37 28 13 6 5 5 3 1 11 6 12 4 7 14 17 14 13 9 7 7 4 7 9 6 12 16 22 30 32 22 33 50 67
89 60 11 51 56 34 121 134 71 113 85 42 34 20 349 19 14 10 19 22 23 19 23 23 17 12 11 6 5 5 7 7 5 9 14 17 22 30 39 37 39 44 53
82 125 90 59 54 40 42 41 21 181 173 317 19 16 22 26 25 20 19 24 26 26 31 21 15 10 6 8 7 6 7 358 0 13 19 20 20 28 36 43 39 48 59
99 41 85 68 65 41 50 24 35 26 25 70 48 19 359 33 29 27 22 17 24 24 27 20 12 5 4 7 9 9 5 3 9 14 21 21 22 30 44 43 42 49 62
54 52 94 90 59 356 38 43 29 31 32 48 22 12 348 15 28 29 26 28 22 19 16 18 13 6 8 7 7 5 11 8 7 15 21 23 22 26 37 40 48 47 55
62 11 359 103 78 52 41 40 39 30 28 41 44 8 346 7 19 20 23 21 22 20 15 14 12 6 4 10 8 5 3 11 10 15 19 24 24 24 30 38 42 53 58
143 114 332 70 56 48 49 45 46 38 33 36 57 22 343 19 20 25 18 17 19 16 12 13 9 12 4 6 10 4 7 7 6 10 14 21 23 28 32 34 46 53 57
150 179 80 88 86 40 21 56 43 45 42 31 29 29 21 25 24 22 22 11 19 18 12 6 11 16 9 8 6 360 2 3 360 9 13 19 26 29 31 41 39 55 65
133 135 146 72 98 181 54 45 34 34 46 42 17 28 27 23 22 24 23 8 8 15 7 7 13 11 17 18 9 3 355 350 352 4 21 23 26 30 33 39 43 51 58
136 169 112 109 21 74 78 69 102 92 51 36 24 3 35 12 26 27 28 12 354 6 11 11 4 11 20 20 12 356 350 336 354 7 11 32 36 32 34 38 39 40 58
117 79 84 119 139 74 147 30 75 56 64 52 20 13 5 6 30 21 35 19 339 360 359 6 1 12 21 20 8 358 348 345 15 6 24 30 46 48 46 47 45 41 49
157 183 126 128 135 171 179 126 99 83 44 19 63 26 3 351 33 3 27 41 337 356 0 8 2 19 15 19 6 356 352 355 19 22 21 39 44 43 52 60 58 60 61